TimeAKDT,TemperatureF,Dew PointF,Humidity,Sea Level PressureIn,VisibilityMPH,Wind Direction,Wind SpeedMPH,Gust SpeedMPH,PrecipitationIn,Events,Conditions,WindDirDegrees,DateUTC
12:53 AM,35.1,30.9,85,29.74,9.0,Calm,Calm,-,N/A,Snow,Light Snow,0,2013-10-07 08:53:00
1:53 AM,34.0,30.9,89,29.74,8.0,Calm,Calm,-,N/A,Snow,Light Snow,0,2013-10-07 09:53:00
2:53 AM,33.1,30.9,92,29.75,8.0,Calm,Calm,-,N/A,Snow,Light Snow,0,2013-10-07 10:53:00
3:15 AM,33.1,30.9,92,29.73,6.0,SW,3.5,-,N/A,Snow,Light Snow,220,2013-10-07 11:15:00
3:53 AM,33.1,30.9,92,29.76,6.0,Calm,Calm,-,N/A,Snow,Light Snow,0,2013-10-07 11:53:00
4:53 AM,33.1,30.9,92,29.77,5.0,Calm,Calm,-,N/A,Snow,Light Snow,0,2013-10-07 12:53:00
5:53 AM,33.1,30.9,92,29.78,3.0,Calm,Calm,-,N/A,Snow,Light Snow,0,2013-10-07 13:53:00
6:53 AM,33.1,30.9,92,29.78,2.0,Calm,Calm,-,N/A,Snow,Light Snow,0,2013-10-07 14:53:00
7:13 AM,33.1,30.9,92,29.76,1.5,Calm,Calm,-,N/A,Snow,Light Snow,0,2013-10-07 15:13:00
7:25 AM,33.1,30.9,92,29.76,0.8,Calm,Calm,-,N/A,Snow,Light Snow,0,2013-10-07 15:25:00
7:53 AM,34.0,32.0,92,29.79,0.5,Calm,Calm,-,N/A,Snow,Light Snow,0,2013-10-07 15:53:00
8:53 AM,34.0,32.0,92,29.81,0.8,Calm,Calm,-,N/A,,Mist,0,2013-10-07 16:53:00
9:14 AM,34.0,32.0,92,29.79,0.5,Calm,Calm,-,N/A,Fog,Fog,0,2013-10-07 17:14:00
9:53 AM,34.0,32.0,92,29.82,0.5,Calm,Calm,-,N/A,Fog,Fog,0,2013-10-07 17:53:00
10:14 AM,34.0,30.9,89,29.80,1.0,SSW,3.5,-,N/A,,Overcast,210,2013-10-07 18:14:00
10:53 AM,34.0,30.9,89,29.83,1.5,South,3.5,-,N/A,,Overcast,170,2013-10-07 18:53:00
11:35 AM,34.0,30.9,89,29.81,3.0,SSE,5.8,-,N/A,,Overcast,150,2013-10-07 19:35:00
11:53 AM,34.0,30.0,85,29.85,3.0,ESE,5.8,-,N/A,,Overcast,120,2013-10-07 19:53:00
12:53 PM,35.1,30.0,82,29.85,4.0,East,3.5,-,N/A,,Overcast,90,2013-10-07 20:53:00
1:53 PM,35.1,30.9,85,29.86,5.0,ENE,5.8,-,N/A,,Overcast,70,2013-10-07 21:53:00
2:53 PM,35.1,30.9,85,29.87,7.0,Calm,Calm,-,N/A,,Overcast,0,2013-10-07 22:53:00
3:53 PM,36.0,30.9,82,29.87,7.0,ENE,3.5,-,N/A,,Overcast,70,2013-10-07 23:53:00
4:53 PM,36.0,30.9,82,29.87,7.0,ENE,3.5,-,N/A,,Overcast,70,2013-10-08 00:53:00
5:53 PM,36.0,30.9,82,29.86,7.0,ESE,5.8,-,N/A,,Overcast,110,2013-10-08 01:53:00
6:53 PM,36.0,32.0,86,29.85,7.0,NNE,4.6,-,N/A,,Mostly Cloudy,20,2013-10-08 02:53:00
7:50 PM,35.6,32.0,87,29.81,10.0,North,6.9,-,N/A,,Mostly Cloudy,10,2013-10-08 03:50:00
7:53 PM,36.0,32.0,86,29.84,10.0,North,8.1,-,N/A,,Mostly Cloudy,10,2013-10-08 03:53:00
8:53 PM,37.0,32.0,82,29.83,10.0,NNE,6.9,-,N/A,,Mostly Cloudy,20,2013-10-08 04:53:00
9:53 PM,37.0,32.0,82,29.80,10.0,NE,5.8,-,N/A,,Mostly Cloudy,40,2013-10-08 05:53:00
10:50 PM,33.8,30.2,87,29.75,10.0,NE,5.8,-,N/A,,Scattered Clouds,50,2013-10-08 06:50:00
10:53 PM,33.1,30.0,89,29.77,10.0,NE,5.8,-,N/A,,Scattered Clouds,50,2013-10-08 06:53:00
11:53 PM,32.0,28.0,85,29.74,10.0,NE,8.1,-,N/A,,Scattered Clouds,40,2013-10-08 07:53:00